"Pseudo-MPEC" for P1180zv

Created 2020 Oct 23 22:07:31 UT using Find_Orb

Click here for an explanation of pseudo-MPECs

 
 Astrometry: 
     P1180zv  C2020 09 26dy0Znss6.xkgimJ'3QesEXv_lO.a,j(Kil+8e$Nts;FfeMp8MKIUF52
     P1180zv  C2020 09 26qRcY8-;cw-o5Ms=!P6vV(#0xo]n@`I8lfK+t@nKM=:TkWUAGrqWTF52
     P1180zv  C2020 09 26th,i%!df$VXE[=s!fD()^]tolop@MrnoY^uZa82s7m70H#T*`lA5F52
     P1180zv  C2020 10 09;4^eR%m%sbAstrometry81]LgxdyrlcfnfuyA@;]Ta%o@RXXdo*QF52
     P1180zv  C2020 10 09nHQ@$w)klIfkO-ekD@k![JpU(3@xqrFs#fxoiF/kmpW8oQ]pf-@AF52
     P1180zv  C2020 10 09dI.*!%V!RYgP46s4T\!S7:HBw._8)#a7-p=HQ^yetLT(/Z*bKxdmF52
     P1180zv  C2020 10 15O\Uht^k6uSREqJGH.h)MBe\VIx[GbNQx]srAe.p;;iebkMcYVjUvF51
     P1180zv  C2020 10 15L1E$FG@tx1q6R6y.:=wYZC,w=A29mC^Kj_k]cP/y\yR_.FV_%j(2F51
     P1180zv  C2020 10 15A_Obqh/nZ8f%1#h;fBwft6NAmgF7J2YcaAZ)Q(01uP7,SY!t!R`PF51
     P1180zv  C2020 10 15ihq6UqMY*,BE(VOY__DZ5[@BoApsVFbDqRTCZgM@0rHf!'K`L_OaF51
     P1180zv KC2020 10 16.43826503 50 48.96 +22 33 12.5    ~AGAq 20.48GVNEOCPI52
     P1180zv KC2020 10 16.44260303 50 48.66 +22 33 15.4    ~AGAq 20.40GVNEOCPI52
     P1180zv KC2020 10 16.44608903 50 48.40 +22 33 17.4    ~AGAq 20.37GVNEOCPI52
     P1180zv KC2020 10 17.41653803 49 37.53 +22 42 34.3    ~AHB7 20.63GVNEOCPI52
     P1180zv KC2020 10 17.44788003 49 35.21 +22 42 53.1    ~AHB7 20.50GVNEOCPI52
     P1180zv KC2020 10 17.45107503 49 34.93 +22 42 54.3    ~AHB7 20.73GVNEOCPI52
     P1180zv KC2020 10 18.43676803 48 20.91 +22 52 22.0    ~AIB7 20.51GVNEOCPI52
     P1180zv KC2020 10 18.43965403 48 20.69 +22 52 23.6    ~AIB7 20.52GVNEOCPI52
     P1180zv KC2020 10 18.44611703 48 20.16 +22 52 26.7    ~AIB7 20.76GVNEOCPI52
     P1180zv KC2020 10 18.88057003 47 47.11 +22 56 36.2    ~AIMb 19.6 GVNEOCPC95
     P1180zv KC2020 10 18.89596603 47 45.92 +22 56 44.9    ~AIMb 19.7 GVNEOCPC95
     P1180zv KC2020 10 18.91137203 47 44.77 +22 56 53.9    ~AIMb 19.5 GVNEOCPC95
     P1180zv KC2020 10 18%LVFh'ty'6wyi+BIsIi)ulIwMO]S4go:9%:[,4Zredacted;4K2gL01
     P1180zv KC2020 10 18n=/q6X:s-click,C*ZrB3,/(.o7n]L(b^oV!X'ljBexNb(bZJPA3L01
     P1180zv KC2020 10 182uitD'i\SKD7uUl-\^xX$PafXI!]SvJfK::pA)Rt/Pe^+1kBJCNsL01
     P1180zv |C2020 10 19;n,eIirym8K-SuN6MEWA)=SO9#rm+l/SxN#AF4_'B8JN)'NaH1XUH06
     P1180zv |C2020 10 19`qXYd=%sq#GNxnPf-2.E43M:UYg7rM.*`rHel?Bmm@aw-n/omx\uH06
     P1180zv ^C2020 10 19.58867803 46 51.860+23 03 27.43   ~AJJM 20.55GVNEOCP568
     P1180zv ^C2020 10 19.59068903 46 51.697+23 03 28.62   ~AJJM 20.64GVNEOCP568
     P1180zv ^C2020 10 19.59221303 46 51.578+23 03 29.48   ~AJJM 20.62GVNEOCP568
     P1180zv ^C2020 10 19.59373603 46 51.457+23 03 30.39   ~AJJM 20.61GVNEOCP568
     P1180zv 1C2020 10 20PPum=2?EtI+lqK86m,]hG5OpDx=v[88eigX`Sw+MGk@rp2ccrF+t658
     P1180zv 1C2020 10 20[4jZ3aVHI3C6F]jwCqx4kq^$Z!PZ-Jpun*bV:00=x-TxjxOgINU;658
     P1180zv 1C2020 10 20y9?3;oGHtqwh!`Dpp.3H;A`sPMCX)^1BWx]E_=]irCghmvVp7wpQ658
     P1180zv 1C2020 10 20KF%nX.RiPcghigMj*d3V-yUvUKh,A?WBx%,1D7teYR,.6Kum2uFg658
     P1180zv 1C2020 10 20L!8:aZ3sV2R0rdT/8tBVL)chereT90fiVT;1l/LvE6.xG[UDTOg1658
     P1180zv 1C2020 10 20p)?JC)629D'Jk6Pq2vbuN/VjdTxnAcJ7mi;jL,VeP]iAM?m9oUhC658
     P1180zv KC2020 10 21xg\SfPtOfvC'fo3v4Y#_`w,Tl;B6YAWNCFHM!hIDJjn7f\U`o:7!L07
     P1180zv KC2020 10 21n)=7sP2QF`Nmb!nQ%lUo:l5wi7q*NLxWC5Qt!\@a0gJf5!k\0:vOL07
     P1180zv KC2020 10 22M$sdO#l!JEkUslkn.![XgK32-CL]yV1$OOS,B/aF/,!(SFPaG2?iL07
     P1180zv KC2020 10 227,!DO('N^l,gB:sdI402Ae;t1k[2WT!n:WlC_NKw@XdbL7uKjbFUL01
     P1180zv KC2020 10 22#@@HUSZc.(#?uF$#r!C*?,V0f+\Wm(fJ#-s2:-viSBFALeVuK2,7L01
     P1180zv KC2020 10 22qBne$[5'Bbn\oj^_CZWw'y#for]dYX5Eq`O\?dq,ZnB)8ZB6;3vyL01
     P1180zv  C2020 10 23.42761503 41 36.19 +23 40 30.9    ~ANB7 20.49GVNEOCPG96
     P1180zv  C2020 10 23.43268603 41 35.76 +23 40 33.7    ~ANB7 20.39GVNEOCPG96
     P1180zv  C2020 10 23.43774603 41 35.33 +23 40 37.0    ~ANB7 20.18GVNEOCPG96
     P1180zv  C2020 10 23.44281603 41 34.88 +23 40 39.6    ~ANB7 20.60GVNEOCPG96
     P1180zv  C2020 10 23k3=$ER$d2u$aWw%Nx1bl-F+BhA]B.3uy8XED\cWWBr4?x=/Ydq%IF51
     P1180zv  C2020 10 239GDPjexplanation,=e`=XYWHRkAPa99@#dyL#GJ-kVJ0AhZ^kZdF51
     P1180zv  C2020 10 23JkfV\a`xTW)v?-]0d.@)/;gTO+$AK5#3OU3)tklNx1\5uw;Z'$unF51

Station data:
(568) Mauna Kea  (N19.826116 W155.472200)  US/Hawaii.
(658) Dominion Astrophysical Observatory  (N48.519987 W123.417000)
   Canada/BritColumbia. 1.82-m Plaskett reflector.
(C95) SATINO Remote Observatory, Haute Provence  (N43.932042 E5.712390)
   France.  Observer J. Jahn. 0.60-m f/3.2 Newtonian reflector + CCD.
(F51) Pan-STARRS 1, Haleakala  (N20.707235 W156.255910)  US/Hawaii.
   Observers N. Primak, A. Schultz, S. Watters, J. Thiel, T. Goggia. Measurer
   PS1 Science Consortium. 1.8-m Ritchey-Chrétien + CCD.
(F52) Pan-STARRS 2, Haleakala  (N20.707384 W156.255910)  US/Hawaii. 1.8-m
   Ritchey-Chrétien + CCD.
(G96) Mt. Lemmon Survey  (N32.442754 W110.788720)  US/Arizona.  Observers T.
   A. Pruyne, B. M. Africano, E. J. Christensen, G. A. Farneth, D. C. Fuls,
   A. R. Gibbs, A. D. Grauer, H. Gröller, J. A. Johnson, R. A. Kowalski, S.
   M. Larson, G. J. Leonard, D. Rankin, R. L. Seaman, F. C. Shelly. 1.5-m
   reflector + 10K CCD.
(H06) RAS Observatory, Mayhill  (N32.903325 W105.528700)  US/New
   Mexico.  Observers E. Guido, G. Sostero, V. Gonano, L. Donato.
(I52) Steward Observatory, Mt. Lemmon Station  (N32.442547 W110.788920)
   US/Arizona.  Observers T. A. Pruyne, B. M. Africano, E. J. Christensen, G.
   A. Farneth, D. C. Fuls, A. R. Gibbs, A. D. Grauer, H. Gröller, J. A.
   Johnson, R. A. Kowalski, S. M. Larson, G. J. Leonard, D. Rankin, R. L.
   Seaman, F. C. Shelly. 1.0-m reflector + CCD.
(L01) Višnjan Observatory, Tičan  (N45.290900 E13.749300)  Croatia.
   Observers K. Korlević, E. Pettarin. Measurer E. Pettarin. 1.0-m f/2.9
   reflector + CCD.
(L07) Osservatorio Salvatore di Giacomo, Agerola  (N40.623927 E14.564060)
   Italy.

Orbital elements:  P1180zv
   Perihelion 2021 Jul 5.185073 +/- 0.132 TT =  4:26:30 (JD 2459400.685073)
Epoch 2020 Oct 23.0 TT = JDT 2459145.5   Ju: 0.1059           AutoNEOCP
q   2.19128442 +/- 0.000493         (J2000 ecliptic)
H   15.3  G 0.15                    Peri.   79.60947 +/- 0.025
                                    Node    50.62271 +/- 0.0023
e   1.0005863 +/- 0.0014            Incl.   83.82535 +/- 0.021
From 50 observations 2020 Sept. 26-Oct. 23; mean residual 0".28
Residuals in arcseconds: 
200926 F52  .13+  .04-    201018 I52  .21+  .06+    201020 658  .45-  .22+    
200926 F52  .19-  .31+    201018 I52  .22-  .56-    201020 658  .64-  .52+    
200926 F52  .19-  .34-    201018 C95  .33-  .51-    201020 658  .71-  .12+    
201009 F52  .17+  .26+    201018 C95  .29-  .77-    201021 L07  .05-  .38+    
201009 F52  .44+  .26+    201018 C95  .34+  .73-    201021 L07  .11-  .05+    
201009 F52  .45+  .18+    201018 L01  .11-  .14+    201022 L07  .25-  .05-    
201015 F51  .03-  .02+    201018 L01  .22-  .01-    201022 L01  .40-  .36-    
201015 F51  .06-  .08+    201018 L01  .23+  .33+    201022 L01  .20+  .02-    
201015 F51  .05+  .07+    201019 H06  .04-  .29-    201022 L01  .24+  .13+    
201015 F51  .09+  .28+    201019 H06  .23-  .37-    201023 G96  .02+  .14+    
201016 I52  .45-  .56-    201019 568  .15+  .11+    201023 G96  .19+  .01+    
201016 I52  .20-  .14-    201019 568  .11+  .15+    201023 G96  .35+  .39+    
201016 I52  .27-  .13-    201019 568  .14+  .13+    201023 G96  .24+  .06+    
201017 I52  .01+  .33-    201019 568  .15+  .17+    201023 F51  .21+  .06+    
201017 I52  .56+  .50+    201020 658  .12-  .13+    201023 F51  .29+  .08+    
201017 I52  .01+  .13-    201020 658  .04-  .13+    201023 F51  .26+  .03-    
201018 I52  .16+  .11+    201020 658  .25-  .23+    

Ephemerides (geocentric):
Date (UTC) HH   RA              Dec         delta   r     elong  mag " sig PA
---- -- -- --  -------------   -----------  ------ ------ -----  --- ---- ---
2020 10 23 22  03 40 53.955   +23 45 15.07  2.6490 3.5578 152.0 20.7 .094  26
2020 10 23 23  03 40 50.329   +23 45 39.24  2.6484 3.5575 152.0 20.7 .095  26
2020 10 24 00  03 40 46.700   +23 46 03.42  2.6477 3.5571 152.1 20.7 .097  26
2020 10 24 01  03 40 43.068   +23 46 27.59  2.6471 3.5568 152.1 20.7 .098  26
2020 10 24 02  03 40 39.432   +23 46 51.76  2.6464 3.5565 152.2 20.7 .099  26
2020 10 24 03  03 40 35.793   +23 47 15.94  2.6458 3.5561 152.2 20.7 .100  26
2020 10 24 04  03 40 32.150   +23 47 40.11  2.6452 3.5558 152.3 20.7 .101  26
2020 10 24 05  03 40 28.504   +23 48 04.28  2.6445 3.5555 152.3 20.7 .103  26
2020 10 24 06  03 40 24.855   +23 48 28.46  2.6439 3.5551 152.4 20.7 .104  25
2020 10 24 07  03 40 21.202   +23 48 52.63  2.6433 3.5548 152.4 20.7 .105  25
2020 10 24 08  03 40 17.546   +23 49 16.80  2.6426 3.5545 152.5 20.7 .106  25
2020 10 24 09  03 40 13.887   +23 49 40.97  2.6420 3.5541 152.5 20.7 .108  25
2020 10 24 10  03 40 10.224   +23 50 05.14  2.6414 3.5538 152.6 20.7 .109  25
2020 10 24 11  03 40 06.558   +23 50 29.31  2.6407 3.5535 152.6 20.7 .110  25
2020 10 24 12  03 40 02.888   +23 50 53.49  2.6401 3.5531 152.7 20.7 .112  25
2020 10 24 13  03 39 59.215   +23 51 17.66  2.6395 3.5528 152.7 20.7 .113  25
2020 10 24 14  03 39 55.539   +23 51 41.82  2.6388 3.5525 152.8 20.7 .114  25
2020 10 24 15  03 39 51.859   +23 52 05.99  2.6382 3.5521 152.8 20.7 .115  24
2020 10 24 16  03 39 48.176   +23 52 30.16  2.6376 3.5518 152.9 20.7 .117  24
2020 10 24 17  03 39 44.490   +23 52 54.33  2.6369 3.5515 152.9 20.7 .118  24
2020 10 24 18  03 39 40.800   +23 53 18.50  2.6363 3.5511 153.0 20.7 .119  24
2020 10 24 19  03 39 37.107   +23 53 42.67  2.6357 3.5508 153.0 20.7 .121  24
2020 10 24 20  03 39 33.411   +23 54 06.83  2.6350 3.5505 153.1 20.7 .122  24
2020 10 24 21  03 39 29.711   +23 54 31.00  2.6344 3.5501 153.1 20.7 .123  24
2020 10 24 22  03 39 26.008   +23 54 55.16  2.6338 3.5498 153.2 20.7 .125  24
2020 10 24 23  03 39 22.301   +23 55 19.33  2.6332 3.5495 153.3 20.7 .126  24
2020 10 25 00  03 39 18.592   +23 55 43.49  2.6325 3.5491 153.3 20.7 .127  24
2020 10 25 01  03 39 14.879   +23 56 07.65  2.6319 3.5488 153.4 20.7 .129  23
2020 10 25 02  03 39 11.162   +23 56 31.82  2.6313 3.5485 153.4 20.7 .130  23
2020 10 25 03  03 39 07.442   +23 56 55.98  2.6307 3.5481 153.5 20.7 .131  23
2020 10 25 04  03 39 03.719   +23 57 20.14  2.6300 3.5478 153.5 20.7 .133  23
2020 10 25 05  03 38 59.993   +23 57 44.30  2.6294 3.5475 153.6 20.7 .134  23
2020 10 25 06  03 38 56.263   +23 58 08.46  2.6288 3.5471 153.6 20.7 .135  23
2020 10 25 07  03 38 52.530   +23 58 32.62  2.6282 3.5468 153.7 20.7 .137  23
2020 10 25 08  03 38 48.793   +23 58 56.77  2.6276 3.5465 153.7 20.7 .138  23
2020 10 25 09  03 38 45.053   +23 59 20.93  2.6269 3.5461 153.8 20.7 .139  23
2020 10 25 10  03 38 41.310   +23 59 45.09  2.6263 3.5458 153.8 20.7 .141  23
2020 10 25 11  03 38 37.564   +24 00 09.24  2.6257 3.5455 153.9 20.7 .142  22
2020 10 25 12  03 38 33.814   +24 00 33.40  2.6251 3.5451 153.9 20.7 .143  22
2020 10 25 13  03 38 30.061   +24 00 57.55  2.6245 3.5448 154.0 20.7 .145  22
2020 10 25 14  03 38 26.304   +24 01 21.70  2.6239 3.5445 154.0 20.6 .146  22
2020 10 25 15  03 38 22.544   +24 01 45.85  2.6232 3.5441 154.1 20.6 .147  22
2020 10 25 16  03 38 18.781   +24 02 10.00  2.6226 3.5438 154.1 20.6 .149  22
2020 10 25 17  03 38 15.015   +24 02 34.15  2.6220 3.5435 154.2 20.6 .150  22
2020 10 25 18  03 38 11.245   +24 02 58.30  2.6214 3.5431 154.2 20.6 .152  22
2020 10 25 19  03 38 07.472   +24 03 22.44  2.6208 3.5428 154.3 20.6 .153  22
2020 10 25 20  03 38 03.696   +24 03 46.59  2.6202 3.5425 154.3 20.6 .154  22
2020 10 25 21  03 37 59.916   +24 04 10.73  2.6196 3.5421 154.4 20.6 .156  21